Regional Weather Roundup
Issued by NWS Goodland, KS

Home | Current Version | Previous Version | Text Only | Print | Product List | Glossary Off
Versions: 1 2 3 4 5 6 7 8 9 10 11 12 13 14 15 16 17 18 19 20 21 22 23 24 25 26 27 28 29 30 31 32 33 34 35 36 37 38 39 40 41 42 43 44 45 46 47 48 49 50

000
ASUS43 KGLD 300159
RWRGLD

GOODLAND FORECAST AREA HOURLY WEATHER ROUNDUP
NATIONAL WEATHER SERVICE GOODLAND KS
800 PM MDT MON SEP 29 2014

...OFFICIAL OBSERVATIONS...

CITY           SKY/WX    TMP DP  RH WIND       PRES   REMARKS
GOODLAND KS    CLOUDY    72  52  49 SW30G43   29.86R
HILL CITY KS   PTCLDY    73  54  51 SE13      29.86R
IMPERIAL NEB   MOCLDY    73  51  46 SE26G35   29.75S
MCCOOK NEB     CLOUDY    74  52  46 SE17      29.81S
AKRON CO       LGT RAIN  54  54 100 NW18G25   29.76F
BURLINGTON CO  LGT RAIN  57  54  89 SW13      29.87R
LIMON CO       CLOUDY    51  49  92 S9        29.83R
$$

...UNOFFICIAL OBSERVATIONS...

CITY           SKY/WX    TMP DP  RH WIND       PRES   REMARKS
COLBY KS       CLEAR     73  55  53 SE24G31   29.83S
GOVE KS          N/A     74  32  21 MISG        N/A
NORTON KS      CLEAR     73  52  46 SE15G21   29.85R
SHARON SPRINGS   N/A     73  53  50 SE20G29     N/A
WAKEENEY KS      N/A     71  48  44 MISG        N/A
TRENTON NEB      N/A     73  32  22 SE22        N/A
KIT CARSON CO    N/A     55  52  91 MISG        N/A
YUMA CO          N/A     58  56  93 N24G33      N/A
$$



USA.gov is the U.S. government's official web portal to all federal, state and local government web resources and services.